Weather History for Kendall, FL

Change the Weather History Date:

Monday, November 7, 2011

  Actual Average Record
Temperature  
Mean Temperature 73 °F -  
Max Temperature 82 °F 82 °F 87 °F (1992)
Min Temperature 64 °F 63 °F 52 °F (2010)
Cooling Degree Days 8    
Growing Degree Days 23 (Base 50)    
Moisture  
Dew Point 62 °F    
Average Humidity 67    
Maximum Humidity 94    
Minimum Humidity 46    
Precipitation  
Precipitation 0.00 in - - ()
Sea Level Pressure  
Sea Level Pressure 30.07 in    
Wind  
Wind Speed 8 mph (NE)    
Max Wind Speed 17 mph    
Max Gust Speed 25 mph    
Visibility 10 miles    
Events      
Averages and records for this station are not official NWS values.
T = Trace of Precipitation, MM = Missing Value Source: NWS Daily Summary

Daily Weather History Graph

Daily Weather History Graph

Search for Another Location

Airport:

Trip Planner

Search our weather history database for the weather conditions in past years. The results will help you decide how hot, cold, wet, or windy it might be!

Date:

Astronomy

Nov. 07, 2011 Rise Set
Actual Time 6:33 AM EST 5:36 PM EST
Civil Twilight 6:09 AM EST 6:00 PM EST
Nautical Twilight 5:42 AM EST 6:28 PM EST
Astronomical Twilight 5:15 AM EST 6:55 PM EST
Moon 3:36 PM EST (11/7) 3:47 AM EST (11/7)
Length of Visible Light 11h 50m
Length of Day
11h 03m
Waxing Gibbous, 91% of the Moon is Illuminated
Nov 7
Waxing Gibbous
Nov 10
Full
Nov 18
Last Quarter
Nov 25
New
Dec 2
First Quarter

Hourly Weather History & Observations

Time (EST) Temp. Heat Index Dew Point Humidity Pressure Visibility Wind Dir Wind Speed Gust Speed Precip Events Conditions
12:53 AM 70.0 °F - 63.0 °F 78% 30.07 in 10.0 mi NE 5.8 mph - N/A   Clear
1:53 AM 69.1 °F - 62.1 °F 78% 30.06 in 10.0 mi NNE 3.5 mph - N/A   Clear
2:53 AM 64.4 °F - 62.6 °F 94% 30.06 in 10.0 mi North 4.6 mph - N/A   Clear
3:53 AM 64.9 °F - 62.1 °F 90% 30.06 in 10.0 mi North 4.6 mph - N/A   Clear
4:53 AM 68.0 °F - 64.0 °F 87% 30.06 in 10.0 mi North 4.6 mph - N/A   Mostly Cloudy
5:53 AM 66.0 °F - 63.0 °F 90% 30.09 in 10.0 mi North 6.9 mph - N/A   Partly Cloudy
6:53 AM 66.9 °F - 63.0 °F 87% 30.09 in 10.0 mi NNE 4.6 mph - N/A   Clear
7:53 AM 72.0 °F - 64.0 °F 76% 30.11 in 10.0 mi NNE 5.8 mph - N/A   Clear
8:53 AM 77.0 °F - 61.0 °F 58% 30.12 in 8.0 mi NNE 8.1 mph - N/A   Scattered Clouds
9:53 AM 80.6 °F 81.5 °F 60.8 °F 51% 30.11 in 10.0 mi ENE 12.7 mph - N/A   Mostly Cloudy
10:53 AM 78.1 °F - 61.0 °F 56% 30.11 in 10.0 mi NE 16.1 mph 25.3 mph N/A   Overcast
11:53 AM 81.0 °F 81.6 °F 60.1 °F 49% 30.09 in 10.0 mi East 16.1 mph - N/A   Clear
12:00 PM 82.4 °F 82.9 °F 60.8 °F 48% 30.09 in 2.5 mi ENE 15.0 mph - N/A   Haze
12:49 PM 80.6 °F 81.5 °F 60.8 °F 51% 30.07 in 10.0 mi ENE 16.1 mph 23.0 mph N/A   Scattered Clouds
12:53 PM 79.0 °F - 60.1 °F 52% 30.06 in 10.0 mi ENE 12.7 mph - N/A   Scattered Clouds
1:53 PM 82.9 °F 83.2 °F 60.1 °F 46% 30.05 in 10.0 mi NE 15.0 mph - N/A   Scattered Clouds
2:53 PM 81.0 °F 81.3 °F 59.0 °F 47% 30.04 in 10.0 mi ENE 17.3 mph - N/A   Partly Cloudy
3:53 PM 80.1 °F 81.1 °F 61.0 °F 52% 30.03 in 10.0 mi ENE 15.0 mph 24.2 mph N/A   Partly Cloudy
4:53 PM 78.1 °F - 61.0 °F 56% 30.03 in 10.0 mi ENE 16.1 mph - N/A   Clear
5:53 PM 75.0 °F - 62.1 °F 64% 30.04 in 10.0 mi NE 9.2 mph - N/A   Clear
6:53 PM 73.9 °F - 62.1 °F 66% 30.05 in 10.0 mi NE 6.9 mph - N/A   Clear
7:53 PM 73.0 °F - 61.0 °F 66% 30.06 in 10.0 mi NE 5.8 mph - N/A   Partly Cloudy
8:53 PM 71.6 °F - 60.8 °F 69% 30.07 in 10.0 mi NE 5.8 mph - N/A   Clear
9:53 PM 68.0 °F - 60.1 °F 76% 30.07 in 10.0 mi Calm Calm - N/A   Clear
10:53 PM 69.1 °F - 62.1 °F 78% 30.06 in 10.0 mi North 3.5 mph - N/A   Partly Cloudy
11:53 PM 69.1 °F - 64.9 °F 87% 30.05 in 10.0 mi North 5.8 mph - N/A   Scattered Clouds